Mosinee, WI

6:14 PM CDT on August 24, 2016 (GMT -0500)
Central Wisconsin

Weather History for KCWA - November, 2012

Change the Weather History Date:

Saturday, November 3, 2012

  Actual Average Record
Temperature  
Mean Temperature 32 °F -  
Max Temperature 37 °F 44 °F 71 °F (2008)
Min Temperature 26 °F 29 °F 17 °F (2006)
Degree Days  
Heating Degree Days 34    
Moisture  
Dew Point 24 °F    
Average Humidity 80    
Maximum Humidity 93    
Minimum Humidity 60    
Precipitation  
Precipitation 0.00 in - - ()
Sea Level Pressure  
Sea Level Pressure 30.21 in    
Wind  
Wind Speed 4 mph (ENE)    
Max Wind Speed 7 mph    
Max Gust Speed -    
Visibility 10 miles    
Events      
Averages and records for this station are not official NWS values.
T = Trace of Precipitation, MM = Missing Value Source: NWS Daily Summary

Daily Weather History Graph

Daily Weather History Graph

Search for Another Location

Airport or City:

Trip Planner

Search our weather history database for the weather conditions in past years. The results will help you decide how hot, cold, wet, or windy it might be!

Date:

Astronomy

Nov. 03, 2012 Rise Set
Actual Time 7:40 AM CDT 5:43 PM CDT
Civil Twilight 7:09 AM CDT 6:14 PM CDT
Nautical Twilight 6:34 AM CDT 6:49 PM CDT
Astronomical Twilight 6:00 AM CDT 7:23 PM CDT
Moon 9:20 PM CDT (11/3) 11:48 AM CDT (11/3)
Length of Visible Light 11h 05m
Length of Day
10h 03m
Waning Gibbous, 80% of the Moon is Illuminated
Nov 3
Waning Gibbous
Nov 6
Last Quarter
Nov 13
New
Nov 20
First Quarter
Nov 28
Full

Hourly Weather History & Observations

Time (CDT) Temp. Windchill Dew Point Humidity Pressure Visibility Wind Dir Wind Speed Gust Speed Precip Events Conditions
12:15 AM 26.6 °F 20.0 °F 23.0 °F 86% 30.19 in 10.0 mi East 5.8 mph - N/A   Clear
12:35 AM 26.6 °F 20.0 °F 23.0 °F 86% 30.19 in 10.0 mi East 5.8 mph - N/A   Clear
12:55 AM 26.6 °F 20.0 °F 21.2 °F 80% 30.19 in 10.0 mi East 5.8 mph - N/A   Clear
1:15 AM 26.6 °F 21.2 °F 23.0 °F 86% 30.19 in 10.0 mi East 4.6 mph - N/A   Clear
1:35 AM 26.6 °F 21.2 °F 21.2 °F 80% 30.19 in 10.0 mi ENE 4.6 mph - N/A   Clear
1:55 AM 26.6 °F - 23.0 °F 86% 30.20 in 10.0 mi Calm Calm - N/A   Clear
2:15 AM 26.6 °F 20.0 °F 23.0 °F 86% 30.19 in 10.0 mi NE 5.8 mph - N/A   Clear
2:35 AM 28.4 °F 22.2 °F 23.0 °F 80% 30.19 in 10.0 mi ENE 5.8 mph - N/A   Clear
2:55 AM 28.4 °F 22.2 °F 24.8 °F 86% 30.20 in 10.0 mi ENE 5.8 mph - N/A   Scattered Clouds
3:15 AM 28.4 °F 22.2 °F 24.8 °F 86% 30.20 in 10.0 mi ENE 5.8 mph - N/A   Scattered Clouds
3:35 AM 28.4 °F 23.3 °F 24.8 °F 86% 30.20 in 10.0 mi ENE 4.6 mph - N/A   Clear
3:55 AM 28.4 °F 22.2 °F 24.8 °F 86% 30.20 in 10.0 mi ENE 5.8 mph - N/A   Clear
4:15 AM 28.4 °F 22.2 °F 24.8 °F 86% 30.20 in 10.0 mi ENE 5.8 mph - N/A   Mostly Cloudy
4:35 AM 28.4 °F 21.2 °F 24.8 °F 86% 30.20 in 10.0 mi ENE 6.9 mph - N/A   Overcast
4:55 AM 28.4 °F 23.3 °F 23.0 °F 80% 30.20 in 10.0 mi NE 4.6 mph - N/A   Mostly Cloudy
5:15 AM 28.4 °F 22.2 °F 24.8 °F 86% 30.20 in 10.0 mi NNE 5.8 mph - N/A   Mostly Cloudy
5:35 AM 28.4 °F 22.2 °F 24.8 °F 86% 30.21 in 10.0 mi NE 5.8 mph - N/A   Mostly Cloudy
5:45 AM 26.6 °F 21.2 °F 24.8 °F 93% 30.21 in 10.0 mi Variable 4.6 mph - N/A   Mostly Cloudy
6:45 AM 26.6 °F 21.2 °F 24.8 °F 93% 30.22 in 10.0 mi Variable 4.6 mph - N/A   Mostly Cloudy
7:45 AM 26.6 °F 20.0 °F 24.8 °F 93% 30.22 in 10.0 mi Variable 5.8 mph - N/A   Mostly Cloudy
8:45 AM 26.6 °F 21.2 °F 24.8 °F 93% 30.23 in 10.0 mi Variable 4.6 mph - N/A   Mostly Cloudy
9:45 AM 30.2 °F 25.4 °F 24.8 °F 80% 30.25 in 10.0 mi Variable 4.6 mph - N/A   Scattered Clouds
10:45 AM 30.2 °F 24.3 °F 24.8 °F 80% 30.26 in 10.0 mi Variable 5.8 mph - N/A   Scattered Clouds
11:45 AM 33.8 °F - 24.8 °F 70% 30.25 in 10.0 mi Calm Calm - N/A   Scattered Clouds
12:45 PM 35.6 °F - 26.6 °F 70% 30.24 in 10.0 mi Calm Calm - N/A   Scattered Clouds
1:45 PM 37.4 °F - 26.6 °F 65% 30.23 in 10.0 mi Calm Calm - N/A   Clear
2:45 PM 37.4 °F - 26.6 °F 65% 30.20 in 10.0 mi Calm Calm - N/A   Scattered Clouds
3:45 PM 37.4 °F - 24.8 °F 60% 30.21 in 10.0 mi Calm Calm - N/A   Mostly Cloudy
4:45 PM 37.4 °F - 26.6 °F 65% 30.20 in 10.0 mi Calm Calm - N/A   Clear
5:45 PM 35.6 °F - 24.8 °F 65% 30.19 in 10.0 mi Calm Calm - N/A   Mostly Cloudy
6:45 PM 33.8 °F - 24.8 °F 70% 30.21 in 10.0 mi Calm Calm - N/A   Scattered Clouds
7:50 PM 30.2 °F - 23.0 °F 75% 30.22 in 10.0 mi Calm Calm - N/A   Clear
8:45 PM 33.8 °F - 24.8 °F 70% 30.23 in 10.0 mi Calm Calm - N/A   Clear
9:50 PM 28.4 °F - 24.8 °F 86% 30.23 in 10.0 mi Calm Calm - N/A   Clear
10:15 PM 30.2 °F 23.4 °F 23.0 °F 75% 30.23 in 10.0 mi East 6.9 mph - N/A   Clear
10:35 PM 26.6 °F 22.6 °F 23.0 °F 86% 30.23 in 10.0 mi ESE 3.5 mph - N/A   Clear
10:55 PM 28.4 °F 24.6 °F 23.0 °F 80% 30.23 in 10.0 mi East 3.5 mph - N/A   Clear
11:15 PM 28.4 °F 24.6 °F 23.0 °F 80% 30.23 in 10.0 mi ESE 3.5 mph - N/A   Clear
11:35 PM 28.4 °F 24.6 °F 23.0 °F 80% 30.23 in 10.0 mi East 3.5 mph - N/A   Clear
11:55 PM 28.4 °F 24.6 °F 23.0 °F 80% 30.23 in 10.0 mi ENE 3.5 mph - N/A   Clear